Content
SEND FEEDBACK

Daily
Averages
Monthly
Summary
United States of America

STATEN ISLAND, NEW YORK


Home > North America > United States > New York
Elevation: 152 feet     Latitude: 40 35N     Longitude: 074 09W

WEATHER
 
SELECT A DAY
Number of Records: 189,762;   Date Range: 1/1/95 - 8/28/14
 
SHARE

PRINT THIS DATA

[ ← Previous Day ]
WEATHER ALMANAC - JANUARY 18, 2013
[ Next Day → ]
[ °C ]   °F
Weather ElementAverageHighLow
Temperature29.6 °F33.1 °F (1:51 am)27 °F (6:51 pm)
Dewpoint9.5 °F21.9 °F (1:51 am)1.9 °F (1:51 pm)
Humidity44.3 %64 % (1:51 am)29 % (1:51 pm)
Barometer30.36 in30.49 in (6:51 pm)30.07 in (1:51 am)
Wind Speed11.2 mph21.9 mph (7:51 am)
Wind Gust32.2 mph (7:51 am)
Weather ElementAverage
Visibility10 mi
Wind DirectionWSW (247.4 °)

Weather ElementTotal
Precipitation---
Heating Degree Days35 (Base 65)
Averaged from 23 records on January 18, 2013
WEATHER CONDITIONS BREAKOUT
WIND DIRECTION BREAKOUT
WEATHER BY HOUR - JANUARY 18, 2013
[ °C ]   °F
Local TimeTemperatureDewpointHumidityBarometerVisibilityWind DirectionWind SpeedGust SpeedPrecipitationEventsConditions
1:51 AM33.1 °F21.9 °F64 %30.07 in10.0 miNNE (20°)12.7 mphOvercast
2:51 AM30.9 °F19.0 °F61 %30.10 in10.0 miNorth (10°)12.7 mphOvercast
3:51 AM30.0 °F17.1 °F59 %30.10 in10.0 miNNE (20°)9.2 mphOvercast
4:51 AM30.0 °F17.1 °F59 %30.14 in10.0 miNorth (360°)5.8 mphScattered Clouds
5:51 AM30.0 °F16.0 °F56 %30.20 in10.0 miNNW (340°)12.7 mphMostly Cloudy
6:51 AM28.9 °F15.1 °F56 %30.25 in10.0 miNorth (350°)12.7 mphOvercast
7:51 AM28.0 °F12.9 °F53 %30.31 in10.0 miNNW (330°)21.9 mph32.2 mphMostly Cloudy
8:51 AM28.4 °F8.6 °F43 %30.36 in10.0 miNNW (340°)16.1 mph24.2 mphSnowLight Snow
9:51 AM28.9 °F7.0 °F40 %30.42 in10.0 miNW (310°)16.1 mph26.5 mph0.00 inScattered Clouds
10:51 AM30.0 °F5.0 °F35 %30.44 in10.0 miNNW (330°)15.0 mphScattered Clouds
11:51 AM30.9 °F7.0 °F37 %30.44 in10.0 miWNW (300°)12.7 mph21.9 mphScattered Clouds
12:51 PM30.9 °F5.0 °F33 %30.43 in10.0 miWNW (300°)10.4 mphPartly Cloudy
1:51 PM30.9 °F1.9 °F29 %30.44 in10.0 miNNW (340°)16.1 mph24.2 mphPartly Cloudy
2:51 PM30.9 °F3.0 °F31 %30.44 in10.0 miNNW (330°)9.2 mph16.1 mphPartly Cloudy
3:51 PM30.9 °F1.9 °F29 %30.44 in10.0 miNW (310°)10.4 mphScattered Clouds
4:51 PM28.9 °F1.9 °F32 %30.46 in10.0 miWest (270°)10.4 mphPartly Cloudy
5:51 PM28.9 °F3.0 °F33 %30.48 in10.0 miWSW (250°)8.1 mphPartly Cloudy
6:51 PM27.0 °F5.0 °F39 %30.49 in10.0 miSW (220°)5.8 mphPartly Cloudy
7:51 PM28.0 °F8.1 °F43 %30.49 in10.0 miSSW (200°)8.1 mphPartly Cloudy
8:51 PM28.9 °F9.0 °F43 %30.46 in10.0 miSouth (180°)8.1 mphPartly Cloudy
9:51 PM28.0 °F10.9 °F49 %30.47 in10.0 miSSW (210°)6.9 mphPartly Cloudy
10:51 PM28.4 °F10.4 °F47 %30.44 in10.0 miSouth (190°)8.1 mphScattered Clouds
11:51 PM28.9 °F12.0 °F49 %30.40 in10.0 miSouth (180°)9.2 mphScattered Clouds
Hourly data recorded from KEWR, located miles away from Staten Island, New York







STORIES FROM OUR PARTNERS